Location: Home
(42.5358°N, 72.7383°W)
Time: 23:43:43
(UTC-05:00)

ITUPSAT 1 - Visible Passes

Search period start: 26 January 2022 00:00
Search period end: 05 February 2022 00:00
Orbit: 700 x 713 km, 98.6° (Epoch: 26 January)

Date Brightness Start Highest point End Pass type
(mag) Time Alt. Az. Time Alt. Az. Time Alt. Az.
26 Jan ? 05:29:15 10° E 05:31:53 15° ENE 05:34:30 10° NNE visible
27 Jan ? 06:11:08 10° SE 06:15:28 36° ENE 06:19:49 10° N visible
28 Jan ? 05:20:30 10° E 05:22:17 12° ENE 05:24:03 10° NE visible
29 Jan ? 06:01:43 10° SE 06:05:49 29° ENE 06:09:54 10° N visible
31 Jan ? 05:52:23 10° ESE 05:56:09 24° ENE 05:59:55 10° NNE visible
01 Feb ? 06:35:12 10° SSE 06:39:54 60° ENE 06:44:36 10° N visible
02 Feb ? 05:43:09 10° ESE 05:46:31 19° ENE 05:49:52 10° NNE visible
03 Feb ? 06:25:37 10° SE 06:30:12 48° ENE 06:34:46 10° N visible
04 Feb ? 05:34:03 10° E 05:36:53 16° ENE 05:39:42 10° NNE visible
